CAPE
0 0 0 nan nan nan nan nan nan nan nan nan nan nan nan 0 nan nan 0 nan nan nan nan nan nan nan nan 0 0 0 1 1 0 0 nan nan nan nan nan nan nan nan nan nan nan nan nan nan nan nan nan nan nan nan 0 3 3 6 11 16 16 17 15 13 13 13 9 5 3 3 4 7 13 13 8 9 11 11 10 21 21 16 15 20 20 17
0 0 0 nan nan nan nan 0 nan nan nan nan nan nan nan nan nan nan nan nan nan nan nan nan nan nan nan 0 1 1 1 1 1 1 0 nan nan nan nan 1 1 1 1 0 0 nan nan nan nan nan nan nan nan nan 0 2 2 5 9 13 13 20 18 19 19 24 22 13 2 2 1 1 nan nan nan nan nan nan 3 7 7 6 8 9 9 11
nan nan nan 0 0 nan nan 0 nan nan nan nan nan nan nan nan nan nan nan nan nan nan nan nan nan nan nan 0 1 1 1 1 1 1 1 0 1 1 3 3 3 1 0 0 0 nan nan nan nan nan nan nan nan nan 0 1 1 3 5 9 9 14 15 18 18 26 24 12 nan nan 0 1 0 0 nan nan nan nan nan nan nan 0 0 3 3 6
nan nan nan 0 0 nan nan nan nan nan nan nan nan nan nan nan nan nan nan nan nan nan nan nan nan nan nan 0 0 0 0 1 1 1 1 1 3 3 6 6 6 1 0 nan nan nan nan nan nan nan nan nan nan nan 0 1 1 1 2 3 3 3 6 9 9 13 13 2 nan nan nan 0 0 0 0 0 0 0 nan nan nan nan nan nan nan 1
nan nan nan nan nan nan nan nan nan nan nan nan nan nan nan nan nan nan nan nan nan nan nan nan nan nan nan nan 0 0 1 1 2 2 2 2 3 3 8 9 9 2 nan nan nan nan nan nan nan nan nan nan nan nan 0 0 0 0 0 nan nan nan nan nan nan nan nan nan nan nan nan nan 0 0 1 3 2 2 0 nan nan nan nan nan nan 0
nan nan nan nan nan nan nan nan nan nan nan nan nan nan nan nan nan nan nan nan nan nan nan nan nan nan nan nan 0 0 1 2 2 2 2 2 3 3 7 10 10 4 nan nan nan nan nan nan nan nan nan nan 0 0 0 0 0 0 nan nan nan nan nan nan nan nan nan nan nan nan nan nan 0 0 1 3 4 4 4 4 4 3 2 0 0 0
nan nan nan nan nan nan nan nan nan nan nan nan nan nan nan nan nan nan nan nan nan nan nan nan nan nan nan nan nan nan 1 2 2 2 2 1 1 1 4 12 12 4 0 nan nan nan nan nan nan nan nan nan 0 0 1 1 1 0 nan nan nan nan nan nan nan nan nan nan nan nan nan nan nan nan 1 2 3 3 4 4 4 3 2 1 1 1
nan nan nan nan nan nan nan nan nan nan nan nan nan nan nan nan nan nan nan nan nan nan nan nan nan nan nan nan nan nan nan nan 0 0 1 2 2 2 2 8 8 13 3 nan nan nan nan nan nan nan 0 1 2 2 2 1 1 nan nan nan nan nan nan nan nan nan nan nan nan nan nan nan nan nan nan 0 0 0 1 2 2 2 0 nan nan nan
nan nan nan nan nan nan nan nan nan nan nan nan nan nan nan nan nan nan nan nan nan nan nan nan nan nan nan nan nan nan nan nan 0 0 1 2 2 2 3 13 13 13 2 nan nan 0 nan nan nan nan 1 1 2 2 1 nan nan nan nan nan nan nan nan nan nan nan nan nan 0 0 nan nan nan nan nan nan nan nan nan nan nan nan nan nan nan nan
nan nan nan nan nan nan nan nan nan nan nan nan nan nan nan nan nan nan nan nan nan nan nan nan nan nan nan nan nan nan nan nan 1 1 3 2 4 4 1 1 1 4 1 nan nan 0 nan nan nan 0 2 2 1 1 nan nan nan nan nan nan nan nan nan nan nan nan nan nan 0 0 0 0 nan nan nan nan nan nan nan nan nan nan nan nan nan nan
nan nan nan nan nan nan nan nan nan nan nan nan nan nan nan nan nan nan nan nan nan nan nan nan nan nan nan nan nan nan nan nan nan nan 0 1 2 2 nan nan nan nan 0 nan nan nan nan 0 0 1 2 2 0 0 nan nan nan nan nan nan nan nan nan nan nan nan 0 0 0 0 0 0 0 0 nan nan nan nan nan nan nan nan nan nan nan nan
nan nan nan nan nan nan nan nan nan nan nan nan nan nan nan nan nan nan nan nan nan nan nan nan nan nan nan nan nan nan nan nan nan nan nan nan 1 1 nan nan nan nan nan nan nan nan 0 1 1 1 2 0 nan nan nan nan nan nan nan nan nan nan nan nan nan 0 0 0 0 0 0 0 0 0 nan nan nan nan nan nan nan nan nan nan nan nan
nan nan nan nan nan nan nan nan nan nan nan nan nan nan nan nan nan nan nan nan nan nan nan nan nan nan nan nan nan nan nan nan nan nan nan nan nan nan nan nan nan nan nan nan nan nan 1 1 1 0 0 nan nan nan nan nan nan nan nan nan nan nan 0 1 1 0 0 0 0 0 0 nan nan nan nan nan nan nan nan nan nan nan nan nan nan nan
nan nan nan nan nan nan nan nan nan nan nan nan nan nan nan nan nan nan nan nan nan nan nan nan nan nan nan nan nan nan nan nan nan nan nan nan nan nan nan nan nan nan nan nan nan nan nan nan nan nan nan nan nan nan nan nan nan nan nan nan nan nan 1 1 1 1 1 1 0 0 0 nan nan nan nan nan nan nan nan nan nan nan nan nan nan nan
nan nan nan nan nan nan nan nan nan nan nan nan nan nan nan nan nan nan nan nan nan nan nan nan nan nan nan nan nan nan nan nan nan nan nan nan nan nan nan nan nan nan nan nan nan nan nan nan nan nan nan nan nan nan nan nan nan nan nan 0 0 0 1 2 2 1 1 1 0 0 nan nan nan nan nan nan nan nan nan nan nan nan nan nan nan nan
nan nan nan nan nan nan nan nan nan nan nan nan nan nan nan nan nan nan nan nan nan nan nan nan nan nan nan nan nan nan nan nan nan nan nan nan nan nan nan nan nan nan nan nan nan nan nan nan nan nan nan nan nan nan nan 0 0 0 0 0 0 1 1 2 2 1 1 0 nan nan nan nan nan nan nan nan nan nan nan nan nan nan nan nan nan nan
nan nan nan nan nan nan nan nan nan nan nan nan nan nan nan nan nan nan nan nan nan nan nan nan nan nan nan nan nan nan nan nan nan nan nan nan nan nan nan nan nan nan nan nan nan nan nan nan nan nan nan nan nan nan nan 0 0 1 1 1 1 1 1 1 1 0 0 nan nan nan nan nan nan nan nan nan nan nan nan nan nan nan nan nan nan nan
nan nan nan nan nan nan nan nan nan nan nan nan nan nan nan nan nan nan nan nan nan nan nan nan nan nan nan nan nan nan nan nan nan nan nan nan nan nan nan nan nan nan nan nan nan nan nan nan nan nan nan nan nan nan nan 1 1 1 1 1 1 1 0 0 0 nan nan nan nan nan nan nan nan nan nan nan nan nan nan nan nan nan nan nan nan nan
nan nan nan nan nan nan nan nan nan nan nan nan nan nan nan nan nan nan nan nan nan nan nan nan nan nan nan nan nan nan nan nan nan nan nan nan nan nan nan nan nan nan nan nan nan nan nan nan nan nan nan nan 0 0 1 1 1 2 0 0 0 0 nan nan nan nan nan nan nan nan nan nan nan nan nan nan nan nan nan nan nan nan nan nan nan nan
nan nan nan nan nan nan nan nan nan nan nan nan nan nan nan nan nan nan nan nan nan nan nan nan nan nan nan nan nan nan nan nan nan nan nan nan nan nan nan nan nan nan nan nan nan nan nan nan nan nan nan 0 1 1 1 2 2 2 1 0 0 nan nan nan nan nan nan nan nan nan nan nan nan nan nan nan nan nan nan nan nan nan nan nan nan nan
nan nan nan nan nan nan nan nan nan nan nan nan nan nan nan nan nan nan nan nan nan nan nan nan nan nan nan nan nan nan nan nan nan nan nan nan nan nan nan nan nan nan nan nan nan nan nan nan nan nan nan 0 1 1 2 2 2 2 1 0 0 nan nan nan nan nan nan nan nan nan nan nan nan nan nan nan nan nan nan nan nan nan nan nan nan nan
nan nan nan nan nan nan nan nan nan nan nan nan nan nan nan nan nan nan nan nan nan nan nan nan nan nan nan nan nan nan nan nan nan nan nan nan nan nan nan nan nan nan nan nan nan nan nan nan nan nan nan 2 2 2 2 2 2 2 1 0 0 nan nan nan nan nan nan nan nan nan nan nan nan nan nan nan nan nan nan nan nan nan nan nan nan nan
nan nan nan nan nan nan nan nan nan nan nan nan nan nan nan nan nan nan nan nan nan nan nan nan nan nan nan nan nan nan nan nan nan nan nan nan nan nan nan nan nan nan nan nan nan nan nan nan nan nan 0 3 2 2 3 3 3 2 1 0 0 nan nan nan nan nan nan nan nan nan nan nan nan nan nan nan nan nan nan nan nan nan nan nan nan nan
nan nan nan nan nan nan nan nan nan nan nan nan nan nan nan nan nan nan nan nan nan nan nan nan nan nan nan nan nan nan nan nan nan nan nan nan nan nan nan nan nan nan nan nan nan nan nan nan nan nan nan 2 3 3 3 3 3 2 2 0 0 nan nan nan nan nan nan nan nan nan nan nan nan nan nan nan nan nan nan nan nan nan nan nan nan nan
1 1 nan nan nan nan nan nan nan nan nan nan nan nan nan nan nan nan nan nan nan nan nan nan nan nan nan nan nan nan nan nan nan nan nan nan nan nan nan nan nan nan nan nan nan nan nan nan nan nan nan nan 1 1 4 3 3 3 2 1 1 0 nan nan nan nan nan nan nan nan nan nan nan nan nan nan nan nan nan nan nan nan nan nan nan nan
8 3 nan nan nan nan nan nan nan nan nan nan nan nan nan nan nan nan nan nan nan nan nan nan nan nan nan nan nan nan nan nan nan nan nan nan nan nan nan nan nan nan nan nan nan nan nan nan nan nan nan nan 7 7 5 4 4 3 3 2 2 0 nan nan nan nan nan nan nan nan nan nan nan nan nan nan nan nan nan nan nan nan nan nan nan 0
16 10 5 1 1 1 nan nan nan nan nan nan nan nan nan nan nan nan nan nan nan nan nan nan nan nan nan nan nan nan nan nan nan nan nan nan nan nan nan nan nan nan nan nan nan nan nan nan nan nan nan nan 4 4 8 5 5 5 5 4 4 1 0 nan nan nan nan nan nan nan nan 0 0 0 0 0 nan nan nan nan nan nan 0 2 2 2
12 7 2 0 0 0 nan nan nan nan nan nan nan nan nan nan nan nan nan nan nan nan nan nan nan nan nan nan nan nan nan nan nan nan nan nan nan nan nan nan nan nan nan nan nan nan nan nan nan nan nan nan nan nan nan 7 7 6 6 4 4 3 1 1 1 0 0 0 nan nan 0 1 2 2 1 0 0 0 0 nan nan 1 2 nan nan nan
0 0 0 0 0 0 0 2 2 2 3 1 1 1 nan nan nan nan nan nan nan nan nan nan nan nan nan nan nan nan nan nan nan nan nan nan nan nan nan nan nan nan nan nan nan nan nan nan nan nan nan nan nan nan nan 23 23 7 8 5 5 5 3 3 3 3 2 1 0 0 1 2 3 3 3 2 1 1 1 1 1 3 2 nan nan nan
nan nan nan nan nan 0 2 4 3 3 5 5 2 2 nan nan nan nan nan nan nan nan nan nan nan nan nan nan nan nan nan nan nan nan nan nan nan nan nan nan nan nan nan nan nan nan nan nan nan nan nan nan nan nan nan nan nan 3 8 9 9 7 6 6 6 5 4 3 1 1 1 2 4 4 4 3 3 3 4 4 4 5 nan nan nan nan
nan nan nan nan nan 0 1 0 0 0 7 8 2 2 0 nan nan nan nan nan nan nan nan nan nan nan nan nan nan nan nan nan nan nan nan nan nan nan nan nan nan nan nan nan nan nan nan nan nan nan nan nan nan nan nan nan nan nan nan 1 1 10 11 9 9 7 5 4 2 2 2 4 5 5 6 5 5 5 6 8 8 4 nan nan nan nan
nan nan nan nan nan nan nan nan nan nan nan nan nan nan nan nan nan nan nan nan nan nan nan nan nan nan nan nan nan nan nan nan nan nan nan nan nan nan nan nan nan nan nan nan nan nan nan nan nan nan nan nan nan nan nan nan nan nan nan nan nan nan nan 12 12 5 2 5 5 5 6 6 8 8 8 10 11 11 11 13 13 8 nan nan nan nan
nan 0 0 nan nan nan nan nan nan nan nan nan nan nan nan nan nan nan nan nan nan nan nan nan nan nan nan nan nan nan nan nan 0 0 nan nan nan nan nan nan nan nan nan nan nan nan nan nan nan nan nan nan nan nan nan nan nan nan nan nan nan nan nan nan nan nan nan 1 2 2 11 7 9 9 9 12 13 13 13 15 15 12 nan nan nan nan
9 2 1 nan nan nan nan nan nan nan nan nan nan nan nan nan nan nan nan nan nan nan nan nan nan nan nan nan nan nan nan nan 1 1 nan nan nan nan nan nan nan nan nan nan nan nan nan nan nan nan nan nan nan nan nan nan nan nan nan nan nan nan nan nan nan nan nan nan nan nan nan nan 10 10 10 15 14 14 16 17 17 17 9 nan nan nan
17 9 1 nan nan nan nan nan nan nan nan nan nan nan nan nan nan nan nan nan nan nan nan nan nan nan nan nan nan nan nan nan nan nan 0 nan nan nan nan nan nan nan nan nan nan nan nan nan nan nan nan nan nan nan nan nan nan nan nan nan nan nan nan nan nan nan nan nan nan nan nan nan nan nan 2 11 15 15 17 20 20 22 17 4 4 nan
17 14 4 0 0 nan nan nan nan nan nan nan nan nan nan nan nan nan nan nan nan nan nan nan nan nan nan nan nan nan nan nan nan nan 0 nan nan nan nan nan nan nan nan nan nan nan nan nan nan nan nan nan nan nan nan nan nan nan nan nan nan nan nan nan nan nan nan nan nan nan nan nan nan nan nan 15 19 19 22 26 26 26 22 9 9 0
20 17 7 0 0 nan nan nan nan nan nan nan nan nan nan nan nan nan nan nan nan nan nan nan nan nan nan nan nan nan nan nan nan nan nan nan nan nan nan nan nan nan nan nan nan nan nan nan nan nan nan nan nan nan nan nan nan nan nan nan nan nan nan nan nan nan nan nan nan nan nan nan nan nan nan 17 19 19 26 30 30 30 22 15 15 5
33 24 9 0 0 nan nan nan nan nan nan nan nan nan nan nan nan nan nan nan nan nan nan nan nan nan nan nan nan nan nan nan nan nan nan nan nan nan nan nan nan nan nan nan nan nan nan nan nan nan nan nan nan nan nan nan nan nan nan nan nan nan nan nan nan nan nan nan nan nan nan nan nan nan nan nan 2 2 nan nan nan 25 35 17 17 12
44 28 10 1 1 nan nan nan nan nan nan nan nan nan nan nan nan nan nan nan nan nan nan nan nan nan nan nan nan nan nan nan nan nan nan nan nan nan nan nan nan nan nan nan nan nan nan nan nan nan nan nan nan nan nan nan nan nan nan nan nan nan nan nan nan nan nan nan nan nan nan nan nan nan nan nan nan nan nan nan nan nan nan nan nan 6
57 37 18 2 2 nan nan nan nan nan nan nan nan nan nan nan nan nan nan nan nan nan nan nan nan nan nan nan nan nan nan nan nan nan nan nan nan nan nan nan nan nan nan nan nan nan nan nan nan nan nan nan nan nan nan nan nan nan nan nan nan nan nan nan nan nan nan nan nan nan nan nan nan nan nan nan nan nan nan nan nan nan nan nan nan nan
66 37 16 1 1 nan nan nan nan nan nan nan nan nan nan nan nan nan nan nan nan nan nan nan nan nan nan nan nan nan nan nan nan nan nan nan nan nan nan nan nan nan nan nan nan nan nan nan nan nan nan nan nan nan nan nan nan nan nan nan nan nan nan nan nan nan nan nan nan nan nan nan nan nan nan nan nan nan nan nan nan nan nan nan nan nan
91 62 7 nan nan nan nan nan nan nan nan nan nan nan nan nan nan nan nan nan nan nan nan nan nan nan nan nan nan nan nan nan nan nan nan nan nan nan nan nan nan nan nan nan nan nan nan nan nan nan nan nan nan nan nan nan nan nan nan nan nan nan nan nan nan nan nan nan nan nan nan nan nan nan nan nan nan nan nan nan nan nan nan nan nan nan
78 57 2 nan nan nan nan nan nan nan nan nan nan nan nan nan nan nan nan nan nan nan nan nan nan nan nan nan nan nan nan nan nan nan nan nan nan nan nan nan nan nan nan nan nan nan nan nan nan nan nan nan nan nan nan nan nan nan nan nan nan nan nan nan nan nan nan nan nan nan nan nan nan nan nan nan nan nan nan nan nan nan nan nan nan nan
78 25 1 nan nan nan nan nan nan nan nan nan nan nan nan nan nan nan nan nan nan nan nan nan nan nan nan nan nan nan nan nan nan nan nan nan nan nan nan nan nan nan nan nan nan nan nan nan nan nan nan nan nan nan nan nan nan nan nan nan nan nan nan nan nan nan nan nan nan nan nan nan nan nan nan nan nan nan nan nan nan nan nan nan nan nan
58 3 nan nan nan nan nan nan nan nan nan nan nan nan nan nan nan nan nan nan nan nan nan nan nan nan nan nan nan nan nan nan nan nan nan nan nan nan nan nan nan nan nan nan nan nan nan nan nan nan nan nan nan nan nan nan nan nan nan nan nan nan nan nan nan nan nan nan nan nan nan nan nan nan nan nan nan nan nan nan nan nan nan nan nan nan
68 5 nan nan nan nan nan nan nan nan nan nan nan nan nan nan nan nan nan nan nan nan nan nan nan nan nan nan nan nan nan nan nan nan nan nan nan nan nan nan nan nan nan nan nan nan nan nan nan nan nan nan nan nan nan nan nan nan nan nan nan nan nan nan nan nan nan nan nan nan nan nan nan nan nan nan nan nan nan nan nan nan nan nan nan nan
66 8 nan nan nan nan nan nan nan nan nan nan nan nan nan nan nan nan nan nan nan nan nan nan nan nan nan nan nan nan nan nan nan nan nan nan nan nan nan nan nan nan nan nan nan nan nan nan nan nan nan nan nan nan nan nan nan nan nan nan nan nan nan nan nan nan nan nan nan nan nan nan nan nan nan nan nan nan nan nan nan nan nan nan nan nan
115 33 nan nan nan nan nan nan nan nan nan nan nan nan nan nan nan nan nan nan nan nan nan nan nan nan nan nan nan nan nan nan nan nan nan nan nan nan nan nan nan nan nan nan nan nan nan nan nan nan nan nan nan nan nan nan nan nan nan nan nan nan nan nan nan nan nan nan nan nan nan nan nan nan nan nan nan nan nan nan nan nan nan nan nan nan
126 49 1 nan nan nan nan nan nan nan nan nan nan nan nan nan nan nan nan nan nan nan nan nan nan nan nan nan nan nan nan nan nan nan nan nan nan nan nan nan nan nan nan nan nan nan nan nan nan nan nan nan nan nan nan nan nan nan nan nan nan nan nan nan nan nan nan nan nan nan nan nan nan nan nan nan nan nan nan nan nan nan nan nan nan nan
105 29 1 nan nan nan nan nan nan nan nan nan nan nan nan nan nan nan nan nan nan nan nan nan nan nan nan nan nan nan nan nan nan nan nan nan nan nan nan nan nan nan nan nan nan nan nan nan nan nan nan nan nan nan nan nan nan nan nan nan nan nan nan nan nan nan nan nan nan nan nan nan nan nan nan nan nan nan nan nan nan nan nan nan nan nan
115 28 0 nan nan nan nan nan nan nan nan nan nan nan nan nan nan nan nan nan nan nan nan nan nan nan nan nan nan nan nan nan nan nan nan nan nan nan nan nan nan nan nan nan nan nan nan nan nan nan nan nan nan nan nan nan nan nan nan nan nan nan nan nan nan nan nan nan nan nan nan nan nan nan nan nan nan nan nan nan nan nan nan nan nan nan
CIN
-0 -0 -0 nan nan nan nan nan nan nan nan nan nan nan nan -0 nan nan -0 nan nan nan nan nan nan nan nan -0 -0 -0 -0 -0 -0 -0 nan nan nan nan nan nan nan nan nan nan nan nan nan nan nan nan nan nan nan nan -0 -0 -0 -0 -0 -0 -0 -0 -0 -0 -0 -0 -0 -0 -0 -0 -0 -10 -8 -8 -6 -20 -1 -1 -0 -0 -0 -0 -0 -0 -0 -0
-0 -0 -0 nan nan nan nan -0 nan nan nan nan nan nan nan nan nan nan nan nan nan nan nan nan nan nan nan -0 -0 -0 -0 -0 -0 -0 -0 nan nan nan nan -12 -12 -14 -12 -14 -14 nan nan nan nan nan nan nan nan nan -0 -0 -0 -0 -0 -0 -0 -0 -0 -0 -0 -0 -0 -0 -0 -0 -0 -0 nan nan nan nan nan nan -1 -0 -0 -0 -0 -0 -0 -0
nan nan nan -1 -1 nan nan -0 nan nan nan nan nan nan nan nan nan nan nan nan nan nan nan nan nan nan nan -0 -0 -0 -0 -0 -0 -0 -0 -0 -3 -3 -6 -12 -12 -13 -11 -12 -12 nan nan nan nan nan nan nan nan nan -1 -0 -0 -0 -0 -0 -0 -0 -1 -0 -0 -1 -1 -1 nan nan -0 -0 -0 -0 nan nan nan nan nan nan nan -1 -0 -0 -0 -0
nan nan nan -1 -1 nan nan nan nan nan nan nan nan nan nan nan nan nan nan nan nan nan nan nan nan nan nan -0 -0 -0 -0 -0 -0 -0 -0 -0 -0 -0 -4 -11 -11 -13 -10 nan nan nan nan nan nan nan nan nan nan nan -0 -0 -0 -0 -1 -1 -1 -2 -3 -5 -5 -5 -5 -6 nan nan nan -0 -0 -0 -0 -1 -2 -2 nan nan nan nan nan nan nan -0
nan nan nan nan nan nan nan nan nan nan nan nan nan nan nan nan nan nan nan nan nan nan nan nan nan nan nan nan -0 -0 -0 -0 -0 -0 -0 -0 -0 -0 -1 -6 -6 -10 nan nan nan nan nan nan nan nan nan nan nan nan -0 -1 -1 -1 -2 nan nan nan nan nan nan nan nan nan nan nan nan nan -0 -0 -0 -0 -0 -0 -0 nan nan nan nan nan nan -3
nan nan nan nan nan nan nan nan nan nan nan nan nan nan nan nan nan nan nan nan nan nan nan nan nan nan nan nan -0 -0 -0 -0 -0 -0 -0 -0 -0 -0 -0 -2 -2 -8 nan nan nan nan nan nan nan nan nan nan -0 -0 -0 -1 -1 -1 nan nan nan nan nan nan nan nan nan nan nan nan nan nan -0 -0 -0 -0 -0 -0 -0 -0 -0 -0 -0 -0 -0 -0
nan nan nan nan nan nan nan nan nan nan nan nan nan nan nan nan nan nan nan nan nan nan nan nan nan nan nan nan nan nan -0 -0 -0 -0 -0 -0 -0 -0 -0 -0 -0 -3 -18 nan nan nan nan nan nan nan nan nan -0 -0 -0 -0 -0 -1 nan nan nan nan nan nan nan nan nan nan nan nan nan nan nan nan -0 -0 -0 -0 -0 -0 -0 -0 -0 -0 -0 -0
nan nan nan nan nan nan nan nan nan nan nan nan nan nan nan nan nan nan nan nan nan nan nan nan nan nan nan nan nan nan nan nan -1 -1 -0 -0 -0 -0 -0 -0 -0 -1 -13 nan nan nan nan nan nan nan -0 -0 -0 -0 -0 -1 -1 nan nan nan nan nan nan nan nan nan nan nan nan nan nan nan nan nan nan -0 -0 -0 -0 -0 -0 -0 -0 nan nan nan
nan nan nan nan nan nan nan nan nan nan nan nan nan nan nan nan nan nan nan nan nan nan nan nan nan nan nan nan nan nan nan nan -1 -1 -1 -1 -1 -1 -0 -0 -0 -1 -17 nan nan -50 nan nan nan nan -0 -0 -0 -0 -1 nan nan nan nan nan nan nan nan nan nan nan nan nan -0 -0 nan nan nan nan nan nan nan nan nan nan nan nan nan nan nan nan
nan nan nan nan nan nan nan nan nan nan nan nan nan nan nan nan nan nan nan nan nan nan nan nan nan nan nan nan nan nan nan nan -0 -0 -0 -1 -0 -0 -1 -39 -39 -18 -33 nan nan -52 nan nan nan -0 -0 -0 -1 -1 nan nan nan nan nan nan nan nan nan nan nan nan nan nan -0 -0 -0 -0 nan nan nan nan nan nan nan nan nan nan nan nan nan nan
nan nan nan nan nan nan nan nan nan nan nan nan nan nan nan nan nan nan nan nan nan nan nan nan nan nan nan nan nan nan nan nan nan nan -1 -1 -1 -1 nan nan nan nan -45 nan nan nan nan -0 -0 -0 -0 -0 -2 -2 nan nan nan nan nan nan nan nan nan nan nan nan -0 -0 -0 -0 -0 -0 -0 -0 nan nan nan nan nan nan nan nan nan nan nan nan
nan nan nan nan nan nan nan nan nan nan nan nan nan nan nan nan nan nan nan nan nan nan nan nan nan nan nan nan nan nan nan nan nan nan nan nan -1 -1 nan nan nan nan nan nan nan nan -0 -0 -0 -0 -1 -1 nan nan nan nan nan nan nan nan nan nan nan nan nan -0 -0 -0 -0 -0 -0 -0 -0 -0 nan nan nan nan nan nan nan nan nan nan nan nan
nan nan nan nan nan nan nan nan nan nan nan nan nan nan nan nan nan nan nan nan nan nan nan nan nan nan nan nan nan nan nan nan nan nan nan nan nan nan nan nan nan nan nan nan nan nan -0 -0 -0 -1 -2 nan nan nan nan nan nan nan nan nan nan nan -0 -0 -0 -0 -0 -0 -0 -0 -0 nan nan nan nan nan nan nan nan nan nan nan nan nan nan nan
nan nan nan nan nan nan nan nan nan nan nan nan nan nan nan nan nan nan nan nan nan nan nan nan nan nan nan nan nan nan nan nan nan nan nan nan nan nan nan nan nan nan nan nan nan nan nan nan nan nan nan nan nan nan nan nan nan nan nan nan nan nan -0 -0 -0 -0 -0 -0 -0 -0 -0 nan nan nan nan nan nan nan nan nan nan nan nan nan nan nan
nan nan nan nan nan nan nan nan nan nan nan nan nan nan nan nan nan nan nan nan nan nan nan nan nan nan nan nan nan nan nan nan nan nan nan nan nan nan nan nan nan nan nan nan nan nan nan nan nan nan nan nan nan nan nan nan nan nan nan -0 -0 -0 -0 -0 -0 -0 -0 -0 -0 -0 nan nan nan nan nan nan nan nan nan nan nan nan nan nan nan nan
nan nan nan nan nan nan nan nan nan nan nan nan nan nan nan nan nan nan nan nan nan nan nan nan nan nan nan nan nan nan nan nan nan nan nan nan nan nan nan nan nan nan nan nan nan nan nan nan nan nan nan nan nan nan nan -0 -0 -0 -0 -0 -0 -0 -0 -0 -0 -0 -0 -0 nan nan nan nan nan nan nan nan nan nan nan nan nan nan nan nan nan nan
nan nan nan nan nan nan nan nan nan nan nan nan nan nan nan nan nan nan nan nan nan nan nan nan nan nan nan nan nan nan nan nan nan nan nan nan nan nan nan nan nan nan nan nan nan nan nan nan nan nan nan nan nan nan nan -0 -0 -0 -0 -0 -0 -0 -0 -0 -0 -0 -0 nan nan nan nan nan nan nan nan nan nan nan nan nan nan nan nan nan nan nan
nan nan nan nan nan nan nan nan nan nan nan nan nan nan nan nan nan nan nan nan nan nan nan nan nan nan nan nan nan nan nan nan nan nan nan nan nan nan nan nan nan nan nan nan nan nan nan nan nan nan nan nan nan nan nan -0 -0 -0 -0 -0 -0 -0 -0 -0 -0 nan nan nan nan nan nan nan nan nan nan nan nan nan nan nan nan nan nan nan nan nan
nan nan nan nan nan nan nan nan nan nan nan nan nan nan nan nan nan nan nan nan nan nan nan nan nan nan nan nan nan nan nan nan nan nan nan nan nan nan nan nan nan nan nan nan nan nan nan nan nan nan nan nan -0 -0 -0 -0 -0 -0 -0 -0 -0 -0 nan nan nan nan nan nan nan nan nan nan nan nan nan nan nan nan nan nan nan nan nan nan nan nan
nan nan nan nan nan nan nan nan nan nan nan nan nan nan nan nan nan nan nan nan nan nan nan nan nan nan nan nan nan nan nan nan nan nan nan nan nan nan nan nan nan nan nan nan nan nan nan nan nan nan nan -1 -0 -0 -0 -0 -0 -0 -0 -0 -0 nan nan nan nan nan nan nan nan nan nan nan nan nan nan nan nan nan nan nan nan nan nan nan nan nan
nan nan nan nan nan nan nan nan nan nan nan nan nan nan nan nan nan nan nan nan nan nan nan nan nan nan nan nan nan nan nan nan nan nan nan nan nan nan nan nan nan nan nan nan nan nan nan nan nan nan nan -0 -0 -0 -0 -0 -0 -0 -0 -0 -0 nan nan nan nan nan nan nan nan nan nan nan nan nan nan nan nan nan nan nan nan nan nan nan nan nan
nan nan nan nan nan nan nan nan nan nan nan nan nan nan nan nan nan nan nan nan nan nan nan nan nan nan nan nan nan nan nan nan nan nan nan nan nan nan nan nan nan nan nan nan nan nan nan nan nan nan nan -0 -0 -0 -0 -0 -0 -0 -0 -0 -0 nan nan nan nan nan nan nan nan nan nan nan nan nan nan nan nan nan nan nan nan nan nan nan nan nan
nan nan nan nan nan nan nan nan nan nan nan nan nan nan nan nan nan nan nan nan nan nan nan nan nan nan nan nan nan nan nan nan nan nan nan nan nan nan nan nan nan nan nan nan nan nan nan nan nan nan -0 -0 -0 -0 -0 -0 -0 -0 -0 -0 -0 nan nan nan nan nan nan nan nan nan nan nan nan nan nan nan nan nan nan nan nan nan nan nan nan nan
nan nan nan nan nan nan nan nan nan nan nan nan nan nan nan nan nan nan nan nan nan nan nan nan nan nan nan nan nan nan nan nan nan nan nan nan nan nan nan nan nan nan nan nan nan nan nan nan nan nan nan -1 -0 -0 -0 -0 -0 -0 -0 -0 -0 nan nan nan nan nan nan nan nan nan nan nan nan nan nan nan nan nan nan nan nan nan nan nan nan nan
-12 -12 nan nan nan nan nan nan nan nan nan nan nan nan nan nan nan nan nan nan nan nan nan nan nan nan nan nan nan nan nan nan nan nan nan nan nan nan nan nan nan nan nan nan nan nan nan nan nan nan nan nan -1 -1 -0 -0 -0 -0 -0 -0 -0 -0 nan nan nan nan nan nan nan nan nan nan nan nan nan nan nan nan nan nan nan nan nan nan nan nan
-10 -13 nan nan nan nan nan nan nan nan nan nan nan nan nan nan nan nan nan nan nan nan nan nan nan nan nan nan nan nan nan nan nan nan nan nan nan nan nan nan nan nan nan nan nan nan nan nan nan nan nan nan -0 -0 -0 -0 -0 -0 -0 -0 -0 -0 nan nan nan nan nan nan nan nan nan nan nan nan nan nan nan nan nan nan nan nan nan nan nan -0
-6 -8 -9 -11 -11 -12 nan nan nan nan nan nan nan nan nan nan nan nan nan nan nan nan nan nan nan nan nan nan nan nan nan nan nan nan nan nan nan nan nan nan nan nan nan nan nan nan nan nan nan nan nan nan -1 -1 -0 -0 -0 -0 -0 -0 -0 -0 -0 nan nan nan nan nan nan nan nan -0 -0 -0 -0 -0 nan nan nan nan nan nan -0 -0 -0 -2
-10 -12 -14 -13 -13 -13 nan nan nan nan nan nan nan nan nan nan nan nan nan nan nan nan nan nan nan nan nan nan nan nan nan nan nan nan nan nan nan nan nan nan nan nan nan nan nan nan nan nan nan nan nan nan nan nan nan -0 -0 -0 -0 -0 -0 -0 -0 -0 -0 -0 -0 -0 nan nan -0 -0 -0 -0 -0 -0 -0 -0 -0 nan nan -0 -0 nan nan nan
-20 -25 -26 -24 -24 -18 -20 -5 -4 -4 -1 -0 -0 -0 nan nan nan nan nan nan nan nan nan nan nan nan nan nan nan nan nan nan nan nan nan nan nan nan nan nan nan nan nan nan nan nan nan nan nan nan nan nan nan nan nan -0 -0 -0 -0 -0 -0 -0 -0 -0 -0 -0 -0 -0 -0 -0 -0 -0 -0 -0 -0 -0 -0 -0 -0 -0 -0 -0 -7 nan nan nan
nan nan nan nan nan -27 -18 -6 -1 -1 -1 -0 -0 -0 nan nan nan nan nan nan nan nan nan nan nan nan nan nan nan nan nan nan nan nan nan nan nan nan nan nan nan nan nan nan nan nan nan nan nan nan nan nan nan nan nan nan nan -2 -0 -0 -0 -0 -0 -0 -0 -0 -0 -0 -0 -0 -0 -0 -0 -0 -0 -0 -0 -0 -0 -0 -0 -0 nan nan nan nan
nan nan nan nan nan -34 -24 -33 -5 -5 -1 -1 -1 -1 -1 nan nan nan nan nan nan nan nan nan nan nan nan nan nan nan nan nan nan nan nan nan nan nan nan nan nan nan nan nan nan nan nan nan nan nan nan nan nan nan nan nan nan nan nan -5 -5 -0 -0 -0 -0 -0 -0 -0 -0 -0 -0 -0 -0 -0 -0 -0 -0 -0 -0 -0 -0 -9 nan nan nan nan
nan nan nan nan nan nan nan nan nan nan nan nan nan nan nan nan nan nan nan nan nan nan nan nan nan nan nan nan nan nan nan nan nan nan nan nan nan nan nan nan nan nan nan nan nan nan nan nan nan nan nan nan nan nan nan nan nan nan nan nan nan nan nan -0 -0 -0 -2 -0 -0 -0 -0 -0 -0 -0 -0 -0 -0 -0 -0 -0 -0 -3 nan nan nan nan
nan -50 -47 nan nan nan nan nan nan nan nan nan nan nan nan nan nan nan nan nan nan nan nan nan nan nan nan nan nan nan nan nan -0 -0 nan nan nan nan nan nan nan nan nan nan nan nan nan nan nan nan nan nan nan nan nan nan nan nan nan nan nan nan nan nan nan nan nan -3 -5 -5 -0 -0 -0 -0 -0 -0 -0 -0 -0 -0 -0 -1 nan nan nan nan
-23 -29 -39 nan nan nan nan nan nan nan nan nan nan nan nan nan nan nan nan nan nan nan nan nan nan nan nan nan nan nan nan nan -0 -0 nan nan nan nan nan nan nan nan nan nan nan nan nan nan nan nan nan nan nan nan nan nan nan nan nan nan nan nan nan nan nan nan nan nan nan nan nan nan -0 -0 -0 -0 -0 -0 -0 -0 -0 -0 -0 nan nan nan
-12 -17 -26 nan nan nan nan nan nan nan nan nan nan nan nan nan nan nan nan nan nan nan nan nan nan nan nan nan nan nan nan nan nan nan -2 nan nan nan nan nan nan nan nan nan nan nan nan nan nan nan nan nan nan nan nan nan nan nan nan nan nan nan nan nan nan nan nan nan nan nan nan nan nan nan -22 -3 -0 -0 -0 -0 -0 -0 -0 -4 -4 nan
-9 -13 -19 -39 -39 nan nan nan nan nan nan nan nan nan nan nan nan nan nan nan nan nan nan nan nan nan nan nan nan nan nan nan nan nan -2 nan nan nan nan nan nan nan nan nan nan nan nan nan nan nan nan nan nan nan nan nan nan nan nan nan nan nan nan nan nan nan nan nan nan nan nan nan nan nan nan -1 -0 -0 -0 -0 -0 -0 -0 -0 -0 -8
-5 -7 -16 -38 -38 nan nan nan nan nan nan nan nan nan nan nan nan nan nan nan nan nan nan nan nan nan nan nan nan nan nan nan nan nan nan nan nan nan nan nan nan nan nan nan nan nan nan nan nan nan nan nan nan nan nan nan nan nan nan nan nan nan nan nan nan nan nan nan nan nan nan nan nan nan nan -2 -2 -2 -0 -0 -0 -0 -0 -0 -0 -1
-3 -4 -12 -38 -38 nan nan nan nan nan nan nan nan nan nan nan nan nan nan nan nan nan nan nan nan nan nan nan nan nan nan nan nan nan nan nan nan nan nan nan nan nan nan nan nan nan nan nan nan nan nan nan nan nan nan nan nan nan nan nan nan nan nan nan nan nan nan nan nan nan nan nan nan nan nan nan -32 -32 nan nan nan -2 -0 -0 -0 -0
-4 -5 -11 -30 -30 nan nan nan nan nan nan nan nan nan nan nan nan nan nan nan nan nan nan nan nan nan nan nan nan nan nan nan nan nan nan nan nan nan nan nan nan nan nan nan nan nan nan nan nan nan nan nan nan nan nan nan nan nan nan nan nan nan nan nan nan nan nan nan nan nan nan nan nan nan nan nan nan nan nan nan nan nan nan nan nan -3
-4 -5 -8 -28 -28 nan nan nan nan nan nan nan nan nan nan nan nan nan nan nan nan nan nan nan nan nan nan nan nan nan nan nan nan nan nan nan nan nan nan nan nan nan nan nan nan nan nan nan nan nan nan nan nan nan nan nan nan nan nan nan nan nan nan nan nan nan nan nan nan nan nan nan nan nan nan nan nan nan nan nan nan nan nan nan nan nan
-3 -5 -10 -40 -40 nan nan nan nan nan nan nan nan nan nan nan nan nan nan nan nan nan nan nan nan nan nan nan nan nan nan nan nan nan nan nan nan nan nan nan nan nan nan nan nan nan nan nan nan nan nan nan nan nan nan nan nan nan nan nan nan nan nan nan nan nan nan nan nan nan nan nan nan nan nan nan nan nan nan nan nan nan nan nan nan nan
-2 -3 -15 nan nan nan nan nan nan nan nan nan nan nan nan nan nan nan nan nan nan nan nan nan nan nan nan nan nan nan nan nan nan nan nan nan nan nan nan nan nan nan nan nan nan nan nan nan nan nan nan nan nan nan nan nan nan nan nan nan nan nan nan nan nan nan nan nan nan nan nan nan nan nan nan nan nan nan nan nan nan nan nan nan nan nan
-4 -5 -20 nan nan nan nan nan nan nan nan nan nan nan nan nan nan nan nan nan nan nan nan nan nan nan nan nan nan nan nan nan nan nan nan nan nan nan nan nan nan nan nan nan nan nan nan nan nan nan nan nan nan nan nan nan nan nan nan nan nan nan nan nan nan nan nan nan nan nan nan nan nan nan nan nan nan nan nan nan nan nan nan nan nan nan
-5 -11 -40 nan nan nan nan nan nan nan nan nan nan nan nan nan nan nan nan nan nan nan nan nan nan nan nan nan nan nan nan nan nan nan nan nan nan nan nan nan nan nan nan nan nan nan nan nan nan nan nan nan nan nan nan nan nan nan nan nan nan nan nan nan nan nan nan nan nan nan nan nan nan nan nan nan nan nan nan nan nan nan nan nan nan nan
-8 -18 nan nan nan nan nan nan nan nan nan nan nan nan nan nan nan nan nan nan nan nan nan nan nan nan nan nan nan nan nan nan nan nan nan nan nan nan nan nan nan nan nan nan nan nan nan nan nan nan nan nan nan nan nan nan nan nan nan nan nan nan nan nan nan nan nan nan nan nan nan nan nan nan nan nan nan nan nan nan nan nan nan nan nan nan
-7 -15 nan nan nan nan nan nan nan nan nan nan nan nan nan nan nan nan nan nan nan nan nan nan nan nan nan nan nan nan nan nan nan nan nan nan nan nan nan nan nan nan nan nan nan nan nan nan nan nan nan nan nan nan nan nan nan nan nan nan nan nan nan nan nan nan nan nan nan nan nan nan nan nan nan nan nan nan nan nan nan nan nan nan nan nan
-5 -16 nan nan nan nan nan nan nan nan nan nan nan nan nan nan nan nan nan nan nan nan nan nan nan nan nan nan nan nan nan nan nan nan nan nan nan nan nan nan nan nan nan nan nan nan nan nan nan nan nan nan nan nan nan nan nan nan nan nan nan nan nan nan nan nan nan nan nan nan nan nan nan nan nan nan nan nan nan nan nan nan nan nan nan nan
-3 -11 nan nan nan nan nan nan nan nan nan nan nan nan nan nan nan nan nan nan nan nan nan nan nan nan nan nan nan nan nan nan nan nan nan nan nan nan nan nan nan nan nan nan nan nan nan nan nan nan nan nan nan nan nan nan nan nan nan nan nan nan nan nan nan nan nan nan nan nan nan nan nan nan nan nan nan nan nan nan nan nan nan nan nan nan
-4 -9 -23 nan nan nan nan nan nan nan nan nan nan nan nan nan nan nan nan nan nan nan nan nan nan nan nan nan nan nan nan nan nan nan nan nan nan nan nan nan nan nan nan nan nan nan nan nan nan nan nan nan nan nan nan nan nan nan nan nan nan nan nan nan nan nan nan nan nan nan nan nan nan nan nan nan nan nan nan nan nan nan nan nan nan nan
-4 -8 -17 nan nan nan nan nan nan nan nan nan nan nan nan nan nan nan nan nan nan nan nan nan nan nan nan nan nan nan nan nan nan nan nan nan nan nan nan nan nan nan nan nan nan nan nan nan nan nan nan nan nan nan nan nan nan nan nan nan nan nan nan nan nan nan nan nan nan nan nan nan nan nan nan nan nan nan nan nan nan nan nan nan nan nan
-3 -8 -20 nan nan nan nan nan nan nan nan nan nan nan nan nan nan nan nan nan nan nan nan nan nan nan nan nan nan nan nan nan nan nan nan nan nan nan nan nan nan nan nan nan nan nan nan nan nan nan nan nan nan nan nan nan nan nan nan nan nan nan nan nan nan nan nan nan nan nan nan nan nan nan nan nan nan nan nan nan nan nan nan nan nan nan
Wind_Speed
1 1 1 1 0 0 1 1 1 1 0 1 1 2 2 2 2 2 3 2 2 2 2 2 2 2 3 4 5 6 6 7 7 8 8 8 9 9 9 9 10 10 11 12 13 14 14 14 14 14 14 14 14 13 13 12 12 11 11 10 10 9 9 8 7 5 4 3 3 3 3 2 4 7 9 11 12 12 13 12 12 11 10 10 9 9
1 1 1 0 1 1 0 0 1 1 0 0 1 1 1 1 1 1 2 2 2 2 2 2 2 3 3 4 5 6 7 7 8 9 9 9 9 10 10 10 10 11 12 13 13 14 14 15 15 14 14 13 13 12 12 12 11 11 11 11 11 10 10 9 9 8 6 6 5 5 5 5 5 5 7 10 12 13 13 12 12 11 10 9 9 8
1 1 1 1 1 1 1 1 1 1 1 1 1 0 0 1 1 1 1 1 1 1 1 1 2 2 3 4 5 6 7 8 9 10 10 10 10 10 11 11 11 12 13 13 14 14 14 14 14 14 13 12 12 11 11 11 11 10 10 10 10 9 9 9 8 7 7 7 7 8 7 6 6 6 7 9 10 11 12 11 11 10 9 8 7 7
1 1 1 1 1 2 2 2 2 2 2 2 2 2 1 1 0 1 0 1 1 1 1 1 1 2 2 3 4 6 8 9 10 10 11 11 11 11 11 12 12 13 14 14 14 14 14 14 13 13 12 12 11 11 10 10 10 10 9 8 7 7 6 6 5 5 5 6 8 10 10 8 7 7 8 9 10 10 10 10 10 9 8 6 5 5
2 2 2 1 2 2 3 2 2 2 2 2 2 2 1 1 0 0 0 0 1 1 1 1 1 1 2 3 4 6 8 9 10 11 11 12 12 12 12 12 13 14 15 15 15 14 14 13 13 12 12 11 11 10 10 9 9 8 8 7 6 5 4 3 3 2 3 6 9 11 11 11 10 9 9 9 10 10 10 10 9 9 7 6 5 4
2 2 2 2 2 2 2 1 1 2 2 1 1 1 1 1 0 0 1 1 1 1 1 1 1 1 2 3 5 7 8 9 10 11 12 12 13 13 13 13 13 15 16 16 16 15 14 14 13 12 12 11 11 10 10 9 8 7 7 6 5 4 4 3 3 4 6 8 10 11 12 11 11 11 10 10 10 10 10 9 9 8 7 6 5 4
2 1 1 1 1 1 1 1 1 1 2 1 1 1 0 0 1 1 1 1 1 1 1 2 2 2 3 4 5 6 7 8 9 10 11 12 13 13 14 13 14 15 17 17 17 16 15 14 13 13 12 11 11 10 9 8 8 7 6 6 5 5 5 5 6 8 9 10 11 11 11 11 11 11 11 11 10 10 9 9 8 8 7 5 4 3
2 1 1 1 1 1 1 1 1 1 2 2 2 2 2 1 1 2 2 1 1 1 2 2 2 3 3 4 4 5 5 6 6 7 9 9 11 12 13 14 14 15 17 17 17 17 16 15 14 13 12 12 11 10 9 8 8 7 6 6 6 6 7 8 9 10 11 12 11 11 10 11 11 11 11 10 10 9 9 8 8 7 6 5 4 3
3 3 2 2 2 2 2 2 2 2 2 2 2 3 3 3 3 2 2 2 2 2 2 2 3 3 3 3 3 4 4 4 4 5 6 6 7 9 11 12 13 15 16 16 16 16 16 15 14 14 13 12 11 10 10 9 8 7 7 7 7 8 9 10 11 12 13 13 12 12 11 11 11 11 10 10 9 9 8 7 7 6 6 5 4 3
4 3 3 3 3 3 3 3 2 2 2 2 3 3 3 4 4 3 3 3 2 2 2 3 3 4 3 3 2 3 3 4 6 7 7 7 8 8 8 8 9 11 14 15 15 15 14 14 14 13 13 12 12 11 10 9 9 9 9 9 9 10 11 12 13 13 14 13 13 12 12 11 11 10 10 9 9 8 8 7 6 5 4 3 3 2
3 3 3 3 2 2 2 2 1 0 1 1 2 3 3 4 4 4 4 4 3 1 2 3 3 4 4 3 2 2 2 3 4 6 7 8 9 8 7 6 7 8 12 12 13 13 13 13 13 13 13 13 12 11 10 10 10 10 10 10 11 11 12 13 13 14 14 13 13 12 12 11 10 10 9 9 8 8 7 6 6 5 3 2 1 0
3 3 3 2 2 1 1 0 1 1 1 1 2 3 4 3 3 3 4 5 4 3 2 2 3 3 4 3 3 2 2 2 3 3 4 5 5 6 5 5 6 8 10 10 11 12 13 13 13 13 13 12 12 12 11 11 11 12 12 12 12 12 13 13 14 14 14 13 13 12 11 11 10 9 8 8 7 6 6 6 5 4 3 2 1 1
3 2 2 2 2 2 1 1 1 0 1 2 3 4 4 3 2 3 4 5 4 3 2 2 2 3 3 3 3 2 2 2 2 3 3 3 3 3 3 3 4 5 6 6 7 8 11 12 13 12 12 12 12 13 13 13 13 13 13 13 13 13 13 13 14 14 13 13 12 12 11 10 9 8 7 7 6 5 5 5 4 3 2 0 1 2
3 2 2 3 3 3 3 3 3 3 4 4 4 4 3 2 2 3 3 4 4 3 2 2 2 3 3 3 3 3 2 2 2 2 2 3 3 3 3 3 3 4 4 4 5 6 8 9 9 9 11 12 13 13 14 14 14 14 14 14 14 14 13 13 13 13 13 12 12 11 10 10 9 8 7 6 6 5 5 4 4 3 1 1 2 3
3 3 3 4 4 4 3 4 4 5 5 4 3 3 2 2 2 3 3 4 3 2 1 3 3 3 3 3 3 3 3 3 3 3 3 3 2 2 2 3 3 3 4 4 5 5 7 7 6 7 9 11 12 13 13 14 14 15 15 15 14 14 13 13 13 12 12 12 11 11 10 10 9 8 7 6 6 5 5 4 4 3 2 2 2 3
4 4 4 5 4 4 4 4 4 4 4 3 3 3 3 3 3 3 3 3 3 2 2 3 3 4 3 2 2 3 4 4 3 3 3 3 1 0 0 3 3 3 3 4 4 5 5 6 6 6 7 11 13 14 15 15 15 16 15 15 14 14 13 13 12 12 12 11 11 11 10 10 9 8 8 7 6 6 5 5 4 4 3 3 2 3
4 4 5 5 5 4 4 4 4 4 3 3 3 3 4 4 3 3 3 3 2 2 3 3 3 3 3 2 2 2 4 4 3 3 3 3 2 0 1 2 4 4 3 3 3 4 4 5 5 6 7 11 14 16 16 16 16 16 16 15 14 14 13 13 12 12 12 11 11 10 10 9 9 8 8 7 7 6 6 5 5 4 3 3 2 2
4 5 5 5 5 4 3 3 3 4 3 3 3 3 3 3 3 3 3 3 3 3 3 3 3 3 2 2 2 2 4 4 4 3 3 3 2 0 1 1 3 4 4 3 3 3 4 4 5 6 8 13 16 16 17 16 16 16 16 15 15 14 13 13 12 12 11 11 11 10 10 9 9 9 8 8 7 7 6 6 5 4 4 3 3 2
5 5 5 5 5 4 3 4 4 4 4 3 3 3 3 3 3 4 4 4 4 4 4 4 4 3 3 3 2 2 4 4 4 3 3 3 2 1 1 1 2 3 4 3 3 2 3 4 6 8 11 15 17 17 17 17 17 17 16 16 15 14 13 13 12 11 11 11 10 10 10 9 9 9 8 8 7 7 6 6 5 5 4 3 3 2
6 6 6 5 4 4 4 5 5 5 4 4 4 3 4 4 4 4 5 4 4 4 4 5 5 4 3 3 2 2 3 4 4 3 4 3 2 2 1 2 3 4 4 3 2 1 2 3 5 8 13 16 17 18 18 18 17 17 17 16 15 14 13 13 12 11 11 10 10 10 9 9 9 9 8 8 7 7 6 6 6 5 4 4 3 2
6 6 6 5 4 4 5 5 5 6 6 5 4 4 4 4 4 5 4 4 4 4 4 5 5 5 3 3 2 2 4 5 4 4 3 3 2 2 1 3 4 4 4 3 1 1 1 2 3 6 10 15 17 18 18 18 18 17 17 16 15 15 14 13 12 11 10 10 9 9 9 9 9 9 8 8 7 7 7 6 6 5 5 4 4 3
5 5 5 6 6 5 5 5 5 6 7 7 6 5 4 5 5 5 5 5 5 5 6 6 5 3 2 3 2 3 5 5 5 4 2 3 3 2 2 2 3 4 4 3 2 1 1 2 2 5 9 15 18 19 19 18 18 17 17 16 15 15 14 13 12 11 10 10 9 9 9 9 9 9 8 8 7 7 6 6 6 5 5 5 4 4
5 5 4 5 6 6 6 5 5 6 7 7 7 6 5 5 5 5 5 5 6 6 5 4 2 1 0 1 1 2 4 4 4 3 3 3 3 2 2 2 3 4 4 3 2 1 1 1 2 4 8 16 18 19 19 18 18 18 17 16 15 15 14 13 12 11 10 9 9 9 9 9 9 9 9 8 7 7 6 6 6 6 5 5 5 5
6 5 5 5 5 5 5 5 5 5 6 6 7 6 6 6 5 5 5 5 5 4 3 2 1 0 1 1 1 1 3 4 3 3 3 4 3 2 2 3 4 4 3 2 2 2 2 2 1 2 3 13 17 19 19 19 18 18 17 16 15 15 14 13 12 11 10 9 9 9 9 9 9 9 9 8 8 7 7 6 6 6 6 6 5 5
7 7 6 5 6 6 6 6 6 6 6 6 6 6 6 6 5 5 4 4 3 3 3 2 2 2 2 2 2 2 3 3 3 3 3 3 2 2 2 3 4 5 3 1 1 2 3 3 2 1 1 7 13 18 19 18 18 17 17 16 15 15 14 13 12 11 10 9 9 9 9 10 10 9 9 9 8 8 7 7 7 7 6 6 6 6
10 9 8 8 9 9 10 10 10 10 11 9 7 6 5 5 4 4 3 3 4 4 4 4 4 4 3 3 3 3 3 3 3 4 3 2 1 1 2 3 4 4 3 1 1 2 3 3 3 2 1 3 9 15 18 18 18 17 17 16 15 15 14 13 12 11 10 10 10 10 10 10 10 10 10 9 9 8 8 7 7 7 7 7 6 6
15 14 14 13 12 12 13 14 14 15 16 14 11 9 7 6 5 5 5 5 5 5 5 5 5 5 4 3 3 3 3 3 4 4 3 2 2 2 2 3 3 3 3 1 1 2 4 4 3 3 2 2 4 9 16 17 18 17 17 16 16 15 14 14 13 12 11 10 10 10 10 11 11 10 10 10 9 9 8 8 8 8 7 6 5 4
18 17 16 15 14 14 14 15 16 17 18 18 17 14 10 7 7 7 7 5 5 6 6 6 6 5 4 4 3 3 3 4 4 4 3 2 2 2 2 3 3 3 3 2 1 0 2 2 3 3 3 2 1 3 9 15 17 17 17 16 16 15 15 14 13 13 12 11 11 11 11 11 11 11 10 10 9 9 9 9 9 8 7 5 3 2
16 17 17 17 16 15 15 16 17 18 19 19 19 17 13 9 8 8 6 5 6 6 7 7 6 5 4 3 2 2 3 4 5 5 4 3 2 2 2 3 3 3 4 3 2 1 1 1 1 1 2 3 2 1 3 9 13 14 15 16 16 16 15 14 14 13 13 12 12 11 11 11 11 11 11 10 10 10 9 9 9 7 5 4 3 3
12 13 14 15 15 15 15 14 14 16 18 19 19 18 13 10 8 7 5 6 6 7 7 7 6 5 3 2 2 2 3 4 5 5 5 4 3 2 3 3 3 4 4 3 2 0 1 1 1 1 2 3 2 1 1 2 4 6 9 13 14 15 15 15 14 13 13 12 12 12 12 12 12 12 11 11 10 10 10 10 8 5 3 3 3 3
10 10 11 11 11 12 12 11 11 12 14 16 17 16 12 10 8 7 6 6 7 7 7 7 6 5 4 3 3 3 3 4 5 6 6 5 3 3 4 4 4 4 4 4 3 2 2 2 2 1 2 2 3 2 2 1 1 1 3 6 8 11 14 14 14 13 13 12 12 12 12 12 12 12 12 11 11 11 11 11 9 6 4 3 3 3
9 9 9 8 8 8 9 8 8 8 9 10 11 11 10 9 8 7 6 7 7 7 7 6 6 5 5 5 5 4 3 3 6 8 8 5 3 3 4 5 4 4 3 2 2 3 2 2 1 1 2 3 3 3 2 2 2 1 2 3 4 6 11 12 12 11 10 11 12 12 13 13 13 12 12 12 12 12 11 11 9 6 4 4 4 3
9 8 7 7 7 7 7 7 7 7 7 7 8 8 8 8 8 7 7 7 7 7 7 6 6 6 5 6 5 4 3 3 6 10 11 6 3 3 4 4 5 4 3 1 1 1 2 2 2 1 2 3 3 3 3 3 2 2 2 3 3 4 7 8 8 8 7 8 9 10 12 13 13 13 13 13 12 12 12 12 10 8 6 4 4 4
9 9 8 7 7 6 7 7 7 7 7 7 7 7 6 6 6 7 7 7 7 7 7 7 6 6 6 5 5 4 2 3 7 10 11 7 4 3 4 5 5 5 4 2 1 1 1 2 2 2 2 2 3 3 3 3 3 2 2 3 3 4 4 5 5 5 5 5 5 6 8 9 11 12 12 13 13 13 13 13 12 10 9 6 5 4
9 9 9 8 7 7 7 7 7 7 7 7 7 7 6 6 6 6 6 6 7 7 7 7 7 7 6 6 5 5 3 4 7 10 11 7 5 4 4 5 6 6 5 4 3 2 1 1 2 2 2 3 3 3 2 2 2 2 2 2 2 3 3 3 4 4 5 4 4 3 3 4 5 7 9 11 12 12 13 13 13 12 11 10 8 6
8 8 8 8 8 7 7 7 7 7 7 7 7 6 7 7 6 6 6 6 6 7 7 7 7 7 6 7 6 6 4 5 7 10 10 8 6 5 4 5 6 6 6 6 5 4 3 2 2 3 3 3 3 3 2 2 2 2 2 1 2 2 2 3 3 4 4 4 4 3 2 2 3 4 5 9 11 12 13 13 13 13 13 12 11 9
8 8 8 8 7 7 8 7 7 7 7 7 7 7 7 7 7 6 6 6 6 6 7 7 6 6 6 5 5 5 4 6 8 9 10 8 6 5 4 4 6 7 7 7 6 5 4 3 3 2 3 3 3 3 3 3 3 2 2 2 2 2 2 2 3 4 4 5 4 4 3 3 3 4 5 9 11 12 13 14 14 14 14 14 13 12
8 8 7 7 7 7 7 7 7 7 7 6 7 7 7 7 6 6 5 5 6 6 6 6 5 5 5 4 4 4 5 7 9 10 11 8 7 5 4 4 5 7 7 7 6 6 6 5 4 4 3 2 2 2 4 5 5 5 4 3 2 2 2 2 3 3 4 5 5 5 4 4 3 4 4 6 7 7 6 7 8 11 13 13 13 13
8 8 7 7 7 7 7 7 6 6 6 6 6 5 5 4 4 4 3 3 3 4 4 4 3 2 2 2 3 4 6 9 10 11 11 9 7 6 5 5 5 6 6 6 6 6 6 6 6 5 4 2 2 1 2 4 6 6 5 3 2 2 2 2 3 3 4 5 5 5 4 3 3 4 4 4 4 4 3 2 2 4 6 6 8 10
8 8 7 7 7 7 7 7 6 5 5 4 4 4 4 3 3 3 3 3 3 4 4 4 4 3 3 3 2 3 5 8 9 10 10 9 7 6 6 5 6 6 6 5 5 5 6 6 5 5 5 4 3 3 3 4 5 6 7 5 3 3 4 3 3 3 4 4 5 5 4 3 3 4 4 4 4 4 4 3 2 2 3 3 3 4
7 7 7 7 6 7 7 6 5 5 4 4 4 4 3 3 3 3 3 3 3 3 4 4 4 4 3 3 3 3 1 3 7 9 8 8 8 7 6 5 5 5 6 5 5 5 6 5 5 5 4 4 4 4 4 4 6 8 9 7 5 4 5 4 4 3 3 4 4 5 5 4 4 4 4 5 4 4 4 4 4 3 3 2 2 3
8 7 7 6 5 5 5 5 4 5 5 5 5 5 5 5 5 4 4 3 3 3 3 4 3 3 3 3 3 3 4 2 1 4 7 8 9 8 6 6 5 5 6 5 5 5 5 5 5 5 5 5 4 4 3 4 5 7 8 7 5 4 4 4 4 3 4 4 4 5 6 5 5 5 5 4 3 3 3 4 5 5 4 3 2 3
7 6 6 5 5 4 4 4 5 5 5 5 5 5 5 5 5 5 5 5 5 5 5 5 5 5 4 2 1 2 3 3 3 1 2 6 7 8 7 6 6 6 6 5 5 5 5 5 4 4 4 5 5 5 5 5 5 5 6 6 6 5 3 4 4 4 4 5 5 5 5 5 4 4 4 4 3 2 2 3 4 5 5 4 3 2
6 5 5 5 4 3 3 4 4 5 5 6 6 5 5 5 6 6 5 5 5 5 5 4 4 4 4 4 2 1 1 2 3 3 2 2 5 6 6 6 6 6 6 6 5 5 4 4 3 3 4 4 5 5 5 5 5 5 5 6 6 6 5 5 5 6 5 5 4 4 5 5 4 4 4 3 3 2 1 1 1 2 3 3 3 3
5 4 4 3 3 3 4 4 5 5 6 6 6 6 5 6 6 6 5 5 5 5 5 5 4 4 4 4 3 2 1 1 2 3 3 2 3 5 5 5 6 6 6 5 5 5 5 4 3 3 3 3 4 5 5 5 6 5 5 5 5 4 2 3 5 7 6 6 5 5 5 5 5 5 4 3 2 2 1 1 2 2 2 2 2 3
5 4 4 3 4 4 5 5 5 5 5 6 6 6 5 6 6 6 6 6 5 5 5 5 5 5 5 4 4 3 3 2 1 2 2 2 2 3 3 4 4 4 4 3 3 4 4 4 4 5 4 3 3 4 4 5 6 6 5 6 5 3 3 3 4 6 7 6 6 5 5 6 6 5 5 4 3 2 1 1 1 2 2 2 2 3
5 5 4 4 4 5 5 5 5 5 5 6 6 5 5 6 6 6 5 6 5 5 5 5 6 6 6 5 5 5 5 4 3 2 2 2 2 3 3 3 4 4 3 3 3 3 2 3 4 5 5 5 4 3 3 4 5 6 6 6 5 4 3 3 4 5 6 6 6 6 7 6 6 6 6 5 4 2 1 1 1 1 1 2 3 3
6 6 5 5 5 5 5 5 5 5 6 5 5 5 6 6 7 7 5 5 5 5 6 6 6 6 6 6 6 6 7 6 5 4 3 3 3 3 3 3 4 4 4 5 4 4 3 3 3 4 5 5 5 4 4 4 5 5 5 6 6 5 4 4 4 4 5 6 7 8 8 7 6 6 6 5 4 3 2 2 1 1 1 1 2 3
7 6 5 5 6 6 6 5 5 6 6 5 5 5 5 7 8 8 6 6 6 6 6 6 7 6 6 5 6 6 7 6 6 5 4 4 4 4 4 4 4 4 4 4 4 4 4 4 3 2 1 3 4 5 5 5 4 4 4 5 5 5 4 4 4 4 4 5 7 7 7 6 5 5 6 6 5 4 4 3 2 2 1 1 2 2
7 7 6 6 6 6 6 6 6 6 6 6 6 5 5 6 6 6 6 5 6 6 6 7 7 7 6 6 6 6 7 6 6 5 5 5 5 5 5 5 5 5 4 3 3 3 3 3 2 2 2 0 2 4 5 5 5 4 4 4 4 4 4 4 4 4 5 5 6 7 7 5 4 4 5 5 5 4 4 3 3 2 2 2 2 2
7 7 6 6 6 6 6 6 6 7 7 6 6 6 6 6 5 5 5 5 6 6 6 6 6 7 6 6 7 7 7 7 7 6 6 5 5 6 6 6 6 6 5 4 3 2 2 2 1 1 2 2 3 4 5 6 6 5 4 4 4 4 4 4 4 4 5 5 6 6 6 5 5 5 5 5 5 4 4 3 3 2 2 2 2 3
Wind_Direction
262 275 297 305 333 74 60 53 68 93 25 21 19 15 8 20 25 22 16 22 26 25 18 9 3 355 346 335 330 326 320 311 303 294 286 276 265 255 243 228 216 206 199 194 191 187 184 182 180 179 178 178 178 178 180 183 186 190 193 195 196 196 195 193 188 179 162 133 96 68 57 96 131 140 139 137 137 137 137 137 136 135 136 138 140 141
265 271 287 31 93 100 280 50 90 115 159 22 24 24 16 6 358 358 7 16 18 17 10 0 356 348 338 328 322 318 313 307 301 295 290 281 271 259 246 231 218 207 201 198 194 191 188 185 183 181 180 179 179 180 182 186 190 195 198 201 202 202 201 199 196 190 179 161 136 108 80 71 80 101 119 126 130 131 131 131 132 133 136 139 141 143
249 259 262 153 142 162 230 232 171 154 165 167 153 122 67 348 333 333 354 358 358 0 5 2 352 341 328 320 314 310 306 302 297 293 289 284 276 266 252 237 221 209 202 199 196 193 190 188 186 184 182 180 180 181 184 188 193 198 202 205 207 207 206 205 203 199 189 169 149 130 112 97 83 82 99 111 117 119 120 120 120 122 126 129 132 134
212 227 238 198 186 198 216 209 189 173 165 160 158 158 153 179 259 287 330 325 323 326 345 3 353 335 321 314 308 304 300 297 293 290 288 285 280 272 260 242 225 210 201 198 196 194 191 189 187 185 183 182 181 183 186 191 196 200 203 206 208 209 209 209 208 203 194 167 150 139 129 120 110 100 95 97 101 103 103 103 103 103 104 106 109 111
204 208 210 195 208 220 218 200 183 170 156 147 145 144 139 151 182 230 239 253 281 297 313 334 329 314 303 301 297 295 292 290 289 287 286 285 282 276 266 247 227 210 201 197 194 192 191 189 188 186 184 183 183 185 188 193 197 200 202 203 203 203 202 198 191 176 157 149 145 141 137 131 124 114 105 100 98 96 94 94 92 89 87 82 78 76
205 196 184 184 199 212 212 199 175 158 141 142 137 129 117 129 160 242 270 268 274 281 288 286 276 269 269 273 278 281 282 283 283 283 283 282 280 277 270 252 230 212 200 195 192 190 189 188 187 186 185 184 184 186 189 194 197 199 199 196 194 189 181 166 146 133 129 133 137 138 138 134 128 122 116 112 107 104 101 98 94 90 85 77 69 59
212 182 154 181 195 201 196 223 188 163 153 182 205 226 224 205 219 233 243 250 258 266 275 269 258 248 246 251 259 266 272 276 277 278 278 277 277 275 270 257 237 217 203 196 191 189 188 186 185 184 184 184 184 185 189 191 193 194 191 186 180 172 161 146 133 126 123 125 127 129 130 128 125 123 121 118 116 114 112 110 107 103 98 91 83 70
223 192 152 187 208 236 258 248 220 189 171 186 208 232 248 245 233 227 227 226 228 238 258 267 262 252 240 238 242 249 258 267 271 273 274 273 272 270 267 256 238 220 205 197 192 189 187 185 183 183 183 183 183 184 186 187 186 183 178 172 165 157 147 137 129 123 120 119 119 118 118 117 117 116 116 115 115 115 116 117 118 117 118 118 118 119
225 216 199 199 204 220 251 241 220 198 187 194 209 229 246 251 248 239 232 233 226 221 229 256 264 262 250 233 229 233 241 249 256 261 267 268 269 268 264 254 237 219 204 198 193 190 187 184 182 181 181 182 182 182 181 178 174 169 164 159 154 148 141 133 127 122 119 117 115 114 112 111 109 108 108 107 107 108 110 113 116 121 127 132 140 150
222 220 219 211 206 213 241 243 229 199 192 208 221 232 241 251 257 260 259 248 236 216 208 234 251 262 265 248 230 225 234 245 252 256 260 263 265 263 257 245 227 210 196 193 191 188 185 182 181 180 181 181 180 178 173 167 162 158 154 152 148 144 139 133 128 124 121 119 117 116 113 111 109 106 104 102 102 102 101 103 105 108 114 124 138 154
220 220 225 225 219 218 235 242 234 167 179 217 238 245 239 240 246 256 265 261 254 234 212 223 235 247 259 259 248 234 229 245 255 259 262 263 261 255 240 220 200 189 186 186 186 185 183 181 180 180 181 180 176 171 164 157 154 151 150 148 146 143 139 134 130 127 124 123 121 119 116 113 111 108 106 104 103 102 100 98 94 90 88 87 94 144
217 215 220 219 215 210 224 269 48 68 114 182 235 248 244 232 225 233 252 261 260 252 231 231 233 235 239 246 252 253 242 248 255 262 266 263 256 245 226 204 187 180 180 181 182 181 181 180 180 180 179 176 170 163 156 153 151 150 149 148 146 143 140 136 133 130 128 126 124 122 119 117 115 113 111 110 109 107 104 100 93 85 73 49 359 310
214 208 210 211 205 197 188 156 121 134 177 203 224 237 241 222 203 210 236 252 255 251 233 238 244 243 235 230 231 236 244 251 256 260 263 257 246 230 211 194 183 178 177 177 179 181 180 179 179 178 175 169 162 156 152 151 151 150 150 148 146 144 141 138 136 133 131 129 127 125 123 122 121 120 119 119 118 116 113 109 104 99 87 26 298 285
213 205 207 215 216 212 198 196 208 221 223 221 225 229 227 189 172 191 227 245 250 247 230 243 253 256 248 228 216 210 215 238 252 256 253 245 230 212 197 190 184 179 174 174 178 179 178 177 176 174 169 162 156 153 152 151 152 152 151 149 147 145 143 140 138 136 134 133 132 131 130 129 129 130 130 131 131 130 128 126 126 130 148 211 253 265
208 205 212 220 223 221 213 212 222 229 231 225 221 215 200 177 177 193 220 239 244 238 225 247 256 259 252 228 208 196 195 215 234 244 245 240 231 210 188 185 183 180 175 177 178 178 174 172 170 167 163 159 157 155 155 154 154 154 152 151 149 147 145 143 141 140 139 138 138 138 138 138 139 140 142 144 145 145 143 142 144 150 168 200 231 249
206 206 215 222 226 225 219 215 222 229 233 222 205 194 195 206 207 209 218 233 234 224 216 243 257 262 260 243 210 190 188 203 218 229 232 230 239 285 129 176 179 180 182 180 178 175 170 166 163 160 158 159 158 157 157 157 157 155 154 152 150 149 147 146 146 145 145 145 146 146 146 147 148 149 151 152 153 152 151 151 152 159 171 192 217 237
206 209 215 221 226 229 222 217 218 223 224 213 200 194 201 211 212 211 216 217 214 212 217 226 241 256 269 282 259 212 191 199 208 218 222 219 223 342 25 172 178 181 185 183 178 171 166 162 159 158 159 160 160 159 158 158 157 156 155 153 152 151 151 151 151 152 152 152 153 153 153 153 153 154 155 155 155 155 154 155 157 163 172 187 205 224
208 210 214 220 226 227 218 212 212 214 214 210 203 200 205 210 209 207 210 211 215 220 225 225 227 233 247 268 261 220 193 196 201 209 214 215 214 208 31 166 178 180 181 182 179 172 166 161 161 161 162 162 161 161 160 159 158 157 156 154 154 154 154 155 157 158 158 158 158 158 158 158 157 157 157 157 157 157 157 160 163 167 174 183 193 207
209 207 210 219 224 224 214 210 210 211 210 207 202 200 209 211 210 209 212 214 218 221 225 228 230 232 231 238 236 213 192 195 198 202 213 212 205 165 90 150 171 178 179 180 176 168 162 160 162 163 163 163 163 162 161 160 159 158 157 157 156 157 158 159 161 162 162 163 163 164 163 162 162 161 160 161 162 163 165 168 170 173 176 180 185 191
213 210 211 215 220 223 222 217 211 205 203 199 195 196 205 207 209 212 215 216 219 222 224 229 233 234 232 238 235 214 189 191 196 206 217 210 198 173 148 164 175 182 184 181 171 156 158 159 161 163 165 165 165 164 163 162 161 160 159 159 159 160 161 162 164 166 167 168 169 171 172 171 169 168 167 168 170 172 174 176 177 178 178 179 182 186
217 217 210 205 209 218 223 215 208 202 198 189 189 194 203 204 208 211 212 212 216 221 223 230 232 232 225 223 217 196 182 183 191 203 214 212 205 194 186 180 182 185 187 181 170 142 154 161 165 167 168 167 167 166 165 164 163 163 162 161 161 162 164 165 167 170 172 174 177 180 182 180 177 175 174 174 176 177 178 179 179 179 179 179 181 186
222 222 211 206 209 217 221 209 201 196 189 182 186 195 204 205 208 210 207 206 211 218 223 227 228 224 211 210 205 192 182 185 190 195 197 214 214 205 190 189 188 188 190 179 169 153 159 167 173 175 174 171 169 168 167 166 165 164 164 163 164 165 166 168 171 173 177 180 183 187 189 187 183 180 177 177 177 178 179 180 180 180 179 180 182 187
233 231 219 211 214 219 223 214 203 193 186 187 192 199 201 201 203 204 200 201 207 215 221 218 209 171 164 247 236 211 194 196 194 192 192 216 213 196 172 178 187 192 194 170 157 155 158 171 187 187 180 175 172 170 168 167 167 166 166 166 166 167 168 170 173 176 180 183 188 191 192 190 186 182 178 178 178 179 180 181 182 182 182 182 184 188
242 239 228 219 218 220 222 217 207 197 191 195 199 202 201 200 200 200 197 198 199 199 186 147 116 43 290 281 268 232 208 204 198 195 202 218 213 188 163 174 187 194 190 154 142 152 159 173 203 216 196 180 176 173 170 169 169 168 167 167 168 169 170 172 174 177 181 185 190 193 195 193 189 184 181 179 180 181 183 184 185 185 185 185 186 189
246 245 239 229 221 217 216 215 209 202 197 198 201 202 201 202 201 199 193 189 183 171 151 155 191 221 227 216 220 223 212 204 199 197 204 219 204 164 165 182 189 190 179 137 132 158 160 174 195 236 252 188 180 176 173 172 171 170 170 170 170 171 172 173 175 178 181 186 191 196 198 196 192 188 184 182 182 184 186 188 189 189 188 188 188 190
240 239 235 229 222 217 215 216 214 209 202 200 198 197 194 196 196 195 191 186 176 169 168 192 211 218 209 202 207 211 204 202 202 204 205 205 184 159 194 196 194 185 155 120 136 170 169 178 188 207 246 212 187 180 176 174 173 172 172 172 172 173 173 174 176 179 182 188 193 198 201 199 196 191 187 185 185 186 188 190 191 192 191 191 190 190
239 238 236 231 225 220 216 217 216 213 208 204 201 196 189 188 192 200 205 195 183 177 184 202 216 220 207 204 206 205 188 193 202 208 206 196 183 178 195 199 188 168 131 114 152 186 182 184 187 195 207 242 207 186 180 178 176 175 175 175 175 175 175 176 178 180 184 189 195 200 203 202 199 195 191 188 188 188 190 192 193 194 192 188 185 184
242 241 239 235 230 225 220 219 218 216 213 210 205 200 192 190 196 205 208 193 181 181 194 205 214 218 212 209 203 194 180 192 199 200 190 192 193 189 179 184 174 154 128 111 101 200 201 196 192 193 202 217 221 191 187 183 180 177 178 177 177 177 178 179 180 182 186 191 196 201 204 204 201 197 193 191 190 191 192 194 195 194 188 169 141 104
247 246 244 241 236 232 227 225 222 220 217 214 210 205 198 196 201 206 204 182 178 187 202 208 213 215 212 198 183 177 189 200 196 186 170 187 196 184 158 169 165 151 130 114 78 21 320 291 245 218 215 204 197 203 214 191 183 179 180 180 180 180 180 181 183 185 188 192 197 201 205 205 203 199 196 193 192 193 194 195 194 189 168 136 109 90
249 248 247 243 239 235 232 230 226 223 220 218 214 210 205 203 205 206 196 179 181 192 204 209 212 209 189 155 150 181 211 205 189 174 168 186 191 171 147 166 170 163 146 135 122 85 279 274 270 256 238 210 196 186 243 195 186 181 181 181 181 182 182 184 185 187 190 193 197 202 205 206 204 201 197 195 195 195 195 196 190 175 125 114 106 99
241 242 243 240 236 233 231 230 227 225 222 220 217 213 209 207 207 204 193 185 188 194 202 206 207 200 180 163 176 202 219 199 180 171 170 191 191 167 153 170 177 175 170 161 162 177 217 237 254 258 243 219 204 190 166 127 113 144 168 175 178 181 183 185 187 189 192 195 198 202 206 207 205 202 199 197 196 196 197 196 187 165 121 120 116 110
235 235 237 235 231 228 227 225 223 222 221 219 217 215 212 208 205 200 194 190 190 193 198 201 202 199 191 193 202 210 209 183 173 172 174 188 184 159 160 170 176 180 188 177 169 168 175 191 208 222 216 212 207 196 177 150 125 117 139 159 167 176 182 183 185 188 191 195 199 203 206 207 206 203 200 198 197 197 197 196 186 165 133 133 130 127
232 231 231 229 226 223 221 219 218 217 216 216 215 214 213 208 203 197 193 191 190 191 193 196 198 199 199 205 212 215 202 180 175 175 176 178 169 153 165 171 173 174 177 160 108 111 138 150 156 172 198 204 201 192 182 168 154 143 140 152 158 168 176 177 179 181 183 189 195 202 206 208 206 204 201 199 198 198 198 197 188 171 144 140 140 139
232 229 227 225 223 222 220 218 217 216 214 212 211 211 210 207 202 197 192 189 189 190 191 192 193 195 198 205 213 218 210 194 182 179 177 175 166 157 163 172 173 170 167 162 127 78 89 121 137 152 178 194 196 192 183 176 166 152 138 151 155 160 166 166 165 166 170 174 184 196 204 206 206 204 201 200 199 199 199 197 190 178 163 157 150 147
234 230 226 223 222 221 220 219 217 215 212 210 207 206 205 205 202 198 193 190 190 192 194 194 194 194 194 199 206 211 206 197 187 182 179 178 169 158 163 177 176 171 170 174 167 146 121 136 151 155 150 165 183 195 189 173 154 138 123 140 149 153 154 152 153 155 159 162 169 180 194 199 202 202 199 198 198 198 199 197 192 184 175 169 164 160
240 233 226 221 219 219 219 217 215 213 212 209 205 203 202 203 203 201 195 190 190 192 196 198 199 198 197 198 202 203 194 182 181 183 183 180 171 162 167 179 178 175 175 179 178 169 151 145 151 155 148 153 168 183 186 163 138 125 126 138 143 142 137 135 139 145 151 158 165 170 173 180 188 190 190 193 195 197 198 198 195 188 180 176 174 173
244 237 227 220 218 217 218 216 214 213 212 209 205 202 201 201 201 199 193 189 189 191 196 200 202 203 202 200 201 198 179 167 174 182 185 180 174 169 172 176 177 177 178 180 179 174 160 148 146 153 160 161 166 170 170 161 160 167 174 166 157 147 133 127 133 142 150 160 164 166 166 171 176 179 180 189 192 195 198 198 196 191 183 181 180 179
246 240 231 222 217 216 217 216 215 213 211 209 207 204 200 197 193 188 183 183 186 189 193 194 194 195 195 193 191 180 156 160 170 179 182 179 176 175 173 168 174 181 185 181 177 172 168 164 166 172 183 184 181 173 165 166 175 185 188 174 159 147 141 136 142 150 157 161 162 162 161 164 167 171 174 182 185 189 194 200 200 194 185 183 182 183
248 242 234 226 220 217 217 217 216 214 211 209 205 198 187 176 163 152 144 151 159 164 163 156 149 142 140 148 156 159 155 163 170 176 178 177 177 176 172 168 174 182 187 182 177 174 177 180 182 182 178 173 175 178 172 173 178 179 174 163 164 178 176 157 157 161 164 161 161 161 158 156 159 163 166 166 165 165 166 175 187 186 178 177 181 184
252 246 239 230 222 216 215 217 215 210 205 198 185 167 151 139 126 112 99 98 98 99 99 100 96 86 70 70 97 139 158 167 173 176 176 176 177 177 174 171 171 174 178 179 179 180 184 190 191 185 172 161 157 161 171 179 178 173 165 165 180 196 191 175 170 170 167 163 162 161 156 151 154 158 163 162 161 160 160 158 151 141 135 135 155 174
257 253 247 237 227 220 219 215 206 193 180 166 156 151 150 144 137 126 109 100 97 98 103 100 93 79 61 45 34 32 68 161 173 176 177 176 176 176 175 171 167 166 169 174 179 184 188 192 190 182 169 158 151 153 165 176 177 174 172 177 182 182 172 171 171 170 167 165 162 159 155 152 156 161 165 166 165 163 159 156 152 146 132 125 133 144
259 257 253 244 234 223 215 200 182 167 158 155 159 165 169 166 162 156 146 139 134 134 135 134 126 112 88 57 33 21 17 8 215 191 179 176 175 174 172 167 163 161 163 169 178 186 191 192 188 179 169 160 154 151 160 171 176 179 182 180 169 151 141 167 171 168 170 170 166 160 158 158 162 165 165 163 161 159 158 157 155 152 149 141 135 137
257 258 256 249 239 223 201 180 168 162 160 166 173 178 178 175 173 170 166 164 163 162 161 159 154 148 139 121 69 25 12 0 352 341 172 173 173 172 169 165 161 160 162 167 175 183 189 190 185 176 165 160 157 154 154 160 169 179 185 174 161 151 160 181 180 175 178 176 170 163 160 159 158 155 150 146 143 142 151 160 161 158 153 149 142 137
258 258 255 249 240 224 199 180 173 170 170 176 181 183 179 178 177 176 175 175 173 170 167 166 162 158 157 151 138 91 22 8 8 13 28 155 168 168 163 160 160 161 164 168 171 173 175 180 174 160 151 154 154 154 153 157 165 174 180 173 171 172 178 172 167 168 176 176 171 163 157 150 145 139 135 130 128 128 136 143 142 140 138 133 132 132
257 252 243 233 223 212 204 193 184 179 178 181 182 180 175 178 180 182 181 178 175 173 170 166 163 164 172 166 156 137 101 57 32 25 24 74 128 143 146 151 156 162 167 170 171 169 169 168 159 145 136 145 151 154 155 157 162 168 174 174 176 175 166 148 156 164 172 172 168 161 150 143 139 138 140 144 148 149 144 145 141 134 127 123 128 133
251 242 229 215 208 209 212 204 195 187 184 183 181 177 172 175 180 185 185 179 175 174 174 171 173 176 180 172 162 152 144 131 99 60 38 47 67 91 113 127 139 147 154 158 158 160 164 159 150 142 136 141 148 153 155 156 159 163 168 170 167 154 118 132 155 168 171 168 164 156 146 141 143 150 161 166 170 173 165 162 160 157 150 145 145 148
247 236 222 209 206 208 211 206 199 193 189 186 181 175 169 171 178 184 187 181 176 173 173 176 182 186 185 174 166 163 163 161 155 141 114 96 88 89 93 100 102 100 99 99 98 102 116 136 145 148 149 150 152 155 154 155 158 161 164 165 163 158 151 159 168 171 168 164 159 152 146 146 153 162 168 168 170 177 195 215 217 191 168 161 158 159
248 238 223 210 206 206 207 204 200 196 193 188 181 174 170 172 177 181 184 181 176 173 172 179 187 191 187 176 170 169 169 166 163 157 148 137 126 116 109 103 95 87 79 75 72 69 66 84 119 144 157 158 158 157 157 158 161 162 161 163 164 166 166 168 168 166 162 159 156 154 154 159 164 167 164 164 170 183 198 207 221 231 222 182 168 165
254 246 231 215 207 204 203 201 199 198 196 189 181 175 173 176 180 182 180 178 176 176 177 182 186 188 184 176 171 168 167 164 160 157 153 150 143 135 127 120 111 101 89 78 69 62 57 55 56 67 123 152 154 153 155 159 161 160 156 161 164 166 163 162 161 161 158 154 155 158 164 168 166 160 155 164 175 188 196 199 206 214 218 204 189 180
256 252 242 224 210 202 199 197 197 198 197 188 181 176 173 177 180 181 177 175 177 180 183 185 185 185 181 173 167 165 165 161 158 156 157 156 152 147 142 136 130 121 110 94 79 69 65 57 39 21 2 108 148 149 151 154 153 152 153 161 164 162 156 156 159 161 158 153 154 158 165 165 158 151 153 167 177 185 191 198 206 209 203 196 198 198
256 254 245 227 213 203 198 196 196 197 196 188 181 175 173 175 177 177 174 175 179 184 187 187 186 183 179 171 167 165 165 162 160 160 160 159 157 154 151 148 144 139 133 126 119 115 113 111 94 348 294 236 185 162 151 152 152 152 158 165 164 157 150 151 154 157 155 152 153 156 161 160 159 160 166 171 175 179 189 201 211 213 198 185 189 199